Time,TemperatureF,DewpointF,PressureIn,WindDirection,WindDirectionDegrees,WindSpeedMPH,WindSpeedGustMPH,Humidity,HourlyPrecipIn,Conditions,Clouds,dailyrainin,SoftwareType,DateUTC
2013-05-04 00:02:00,49.0,39.0,30.29,ESE,115,5.0,12.0,69,0.00,,,0.00,,2013-05-04 04:02:00,
2013-05-04 00:12:00,49.0,39.0,30.29,ESE,115,5.0,12.0,69,0.00,,,0.00,,2013-05-04 04:12:00,
2013-05-04 00:22:00,49.0,39.0,30.29,ESE,115,5.0,12.0,69,0.00,,,0.00,,2013-05-04 04:22:00,
2013-05-04 00:33:00,47.0,37.0,30.29,ESE,111,2.0,8.0,69,0.00,,,0.00,,2013-05-04 04:33:00,
2013-05-04 00:42:00,47.0,37.0,30.29,ESE,111,2.0,8.0,69,0.00,,,0.00,,2013-05-04 04:42:00,
2013-05-04 00:43:00,46.0,37.0,30.29,ESE,113,3.0,8.0,70,0.00,,,0.00,,2013-05-04 04:43:00,
2013-05-04 00:53:00,47.0,37.0,30.29,ESE,111,2.0,8.0,69,0.00,,,0.00,,2013-05-04 04:53:00,
2013-05-04 01:02:00,46.0,37.0,30.29,ESE,113,3.0,8.0,70,0.00,,,0.00,,2013-05-04 05:02:00,
2013-05-04 01:12:00,46.0,37.0,30.29,ESE,113,3.0,8.0,70,0.00,,,0.00,,2013-05-04 05:12:00,
2013-05-04 01:22:00,46.0,37.0,30.29,ESE,113,3.0,8.0,70,0.00,,,0.00,,2013-05-04 05:22:00,
2013-05-04 01:32:00,46.0,37.0,30.29,ESE,113,3.0,8.0,70,0.00,,,0.00,,2013-05-04 05:32:00,
2013-05-04 01:52:00,45.0,37.0,30.25,ESE,108,3.0,10.0,74,0.00,,,0.00,,2013-05-04 05:52:00,
2013-05-04 02:01:00,44.0,37.0,30.24,East,101,3.0,9.0,75,0.00,,,0.00,,2013-05-04 06:01:00,
2013-05-04 02:12:00,44.0,37.0,30.24,East,101,3.0,9.0,75,0.00,,,0.00,,2013-05-04 06:12:00,
2013-05-04 02:21:00,44.0,37.0,30.23,East,96,2.0,8.0,76,0.00,,,0.00,,2013-05-04 06:21:00,
2013-05-04 02:32:00,44.0,37.0,30.23,East,96,2.0,8.0,76,0.00,,,0.00,,2013-05-04 06:32:00,
2013-05-04 02:42:00,44.0,37.0,30.23,East,96,2.0,8.0,76,0.00,,,0.00,,2013-05-04 06:42:00,
2013-05-04 02:52:00,43.0,36.0,30.23,East,100,5.0,8.0,77,0.00,,,0.00,,2013-05-04 06:52:00,
2013-05-04 03:01:00,43.0,36.0,30.22,ESE,104,6.0,17.0,77,0.00,,,0.00,,2013-05-04 07:01:00,
2013-05-04 03:11:00,43.0,36.0,30.22,ESE,104,6.0,17.0,77,0.00,,,0.00,,2013-05-04 07:11:00,
2013-05-04 03:21:00,43.0,37.0,30.22,East,101,5.0,10.0,78,0.00,,,0.00,,2013-05-04 07:21:00,
2013-05-04 03:32:00,42.0,36.0,30.22,East,101,3.0,12.0,79,0.00,,,0.00,,2013-05-04 07:32:00,
2013-05-04 03:42:00,42.0,36.0,30.22,East,101,3.0,12.0,79,0.00,,,0.00,,2013-05-04 07:42:00,
2013-05-04 03:52:00,42.0,36.0,30.22,North,0,0.0,8.0,79,0.00,,,0.00,,2013-05-04 07:52:00,
2013-05-04 04:02:00,42.0,36.0,30.22,North,0,0.0,8.0,79,0.00,,,0.00,,2013-05-04 08:02:00,
2013-05-04 04:11:00,42.0,36.0,30.22,North,0,0.0,8.0,79,0.00,,,0.00,,2013-05-04 08:11:00,
2013-05-04 04:21:00,41.0,35.0,30.22,North,0,0.0,2.0,80,0.00,,,0.00,,2013-05-04 08:21:00,
2013-05-04 04:32:00,41.0,35.0,30.21,North,0,0.0,2.0,80,0.00,,,0.00,,2013-05-04 08:32:00,
2013-05-04 04:42:00,41.0,35.0,30.21,North,0,0.0,2.0,80,0.00,,,0.00,,2013-05-04 08:42:00,
2013-05-04 04:52:00,41.0,35.0,30.21,North,0,0.0,2.0,80,0.00,,,0.00,,2013-05-04 08:52:00,
2013-05-04 05:02:00,41.0,35.0,30.22,East,81,1.0,7.0,80,0.00,,,0.00,,2013-05-04 09:02:00,
2013-05-04 05:11:00,41.0,35.0,30.22,East,81,1.0,7.0,80,0.00,,,0.00,,2013-05-04 09:11:00,
2013-05-04 05:22:00,41.0,35.0,30.22,East,81,1.0,7.0,80,0.00,,,0.00,,2013-05-04 09:22:00,
2013-05-04 05:32:00,41.0,35.0,30.22,East,81,1.0,7.0,80,0.00,,,0.00,,2013-05-04 09:32:00,
2013-05-04 05:42:00,41.0,35.0,30.22,East,81,1.0,7.0,80,0.00,,,0.00,,2013-05-04 09:42:00,
2013-05-04 05:52:00,41.0,36.0,30.22,North,0,0.0,6.0,81,0.00,,,0.00,,2013-05-04 09:52:00,
2013-05-04 06:03:00,41.0,36.0,30.23,North,0,0.0,4.0,81,0.00,,,0.00,,2013-05-04 10:03:00,
2013-05-04 06:12:00,41.0,36.0,30.23,North,0,0.0,4.0,81,0.00,,,0.00,,2013-05-04 10:12:00,
2013-05-04 06:23:00,41.0,36.0,30.23,ESE,116,2.0,8.0,83,0.00,,,0.00,,2013-05-04 10:23:00,
2013-05-04 06:33:00,42.0,38.0,30.23,ESE,109,2.0,10.0,84,0.00,,,0.00,,2013-05-04 10:33:00,
2013-05-04 06:42:00,42.0,38.0,30.23,ESE,109,2.0,10.0,84,0.00,,,0.00,,2013-05-04 10:42:00,
2013-05-04 06:52:00,42.0,38.0,30.24,East,94,3.0,7.0,86,0.00,,,0.00,,2013-05-04 10:52:00,
2013-05-04 07:02:00,42.0,38.0,30.24,East,94,3.0,7.0,86,0.00,,,0.00,,2013-05-04 11:02:00,
2013-05-04 07:11:00,42.0,38.0,30.24,East,94,3.0,7.0,86,0.00,,,0.00,,2013-05-04 11:11:00,
2013-05-04 07:21:00,42.0,38.0,30.24,ESE,108,4.0,12.0,86,0.00,,,0.00,,2013-05-04 11:21:00,
2013-05-04 07:32:00,42.0,38.0,30.24,ESE,107,5.0,10.0,86,0.00,,,0.00,,2013-05-04 11:32:00,
2013-05-04 07:46:00,42.0,38.0,30.24,ESE,107,5.0,10.0,86,0.00,,,0.00,,2013-05-04 11:46:00,
2013-05-04 07:56:00,42.0,38.0,30.24,East,99,6.0,11.0,87,0.00,,,0.00,,2013-05-04 11:56:00,
2013-05-04 08:09:00,43.0,39.0,30.24,East,99,6.0,15.0,87,0.00,,,0.00,,2013-05-04 12:09:00,
2013-05-04 08:14:00,43.0,39.0,30.24,East,99,6.0,15.0,87,0.00,,,0.00,,2013-05-04 12:14:00,
2013-05-04 08:30:00,43.0,39.0,30.24,East,101,6.0,17.0,87,0.00,,,0.00,,2013-05-04 12:30:00,
2013-05-04 08:37:00,43.0,40.0,30.25,East,97,7.0,13.0,88,0.00,,,0.00,,2013-05-04 12:37:00,
2013-05-04 08:42:00,43.0,40.0,30.25,East,97,7.0,13.0,88,0.00,,,0.00,,2013-05-04 12:42:00,
2013-05-04 08:52:00,43.0,39.0,30.25,ESE,102,7.0,13.0,87,0.00,,,0.00,,2013-05-04 12:52:00,
2013-05-04 09:01:00,43.0,39.0,30.25,ESE,102,7.0,13.0,87,0.00,,,0.00,,2013-05-04 13:01:00,
2013-05-04 09:11:00,43.0,39.0,30.25,ESE,102,7.0,13.0,87,0.00,,,0.00,,2013-05-04 13:11:00,
2013-05-04 09:21:00,44.0,39.0,30.24,ESE,106,7.0,17.0,84,0.00,,,0.00,,2013-05-04 13:21:00,
2013-05-04 09:32:00,46.0,41.0,30.25,ESE,105,7.0,15.0,81,0.00,,,0.00,,2013-05-04 13:32:00,
2013-05-04 09:42:00,46.0,41.0,30.25,ESE,105,7.0,15.0,81,0.00,,,0.00,,2013-05-04 13:42:00,
2013-05-04 09:52:00,46.0,41.0,30.24,East,93,10.0,17.0,81,0.00,,,0.00,,2013-05-04 13:52:00,
2013-05-04 10:02:00,46.0,40.0,30.24,East,91,9.0,17.0,80,0.00,,,0.00,,2013-05-04 14:02:00,
2013-05-04 10:11:00,46.0,40.0,30.24,East,91,9.0,17.0,80,0.00,,,0.00,,2013-05-04 14:11:00,
2013-05-04 10:21:00,47.0,41.0,30.24,ESE,104,7.0,14.0,79,0.00,,,0.00,,2013-05-04 14:21:00,
2013-05-04 10:32:00,48.0,41.0,30.24,East,95,7.0,12.0,78,0.00,,,0.00,,2013-05-04 14:32:00,
2013-05-04 10:42:00,48.0,41.0,30.24,East,95,7.0,12.0,78,0.00,,,0.00,,2013-05-04 14:42:00,
2013-05-04 10:52:00,48.0,41.0,30.24,East,97,10.0,18.0,77,0.00,,,0.00,,2013-05-04 14:52:00,
2013-05-04 11:02:00,50.0,43.0,30.24,East,96,10.0,18.0,76,0.00,,,0.00,,2013-05-04 15:02:00,
2013-05-04 11:12:00,50.0,43.0,30.24,East,96,10.0,18.0,76,0.00,,,0.00,,2013-05-04 15:12:00,
2013-05-04 11:22:00,50.0,43.0,30.24,East,96,10.0,18.0,76,0.00,,,0.00,,2013-05-04 15:22:00,
2013-05-04 11:33:00,52.0,42.0,30.24,East,99,7.0,14.0,69,0.00,,,0.00,,2013-05-04 15:33:00,
2013-05-04 11:43:00,52.0,42.0,30.24,East,99,7.0,14.0,69,0.00,,,0.00,,2013-05-04 15:43:00,
2013-05-04 11:53:00,52.0,41.0,30.24,East,89,8.0,15.0,66,0.00,,,0.00,,2013-05-04 15:53:00,
2013-05-04 12:03:00,53.0,41.0,30.24,ESE,103,9.0,17.0,64,0.00,,,0.00,,2013-05-04 16:03:00,
2013-05-04 12:12:00,53.0,41.0,30.24,ESE,103,9.0,17.0,64,0.00,,,0.00,,2013-05-04 16:12:00,
2013-05-04 12:22:00,54.0,41.0,30.24,ESE,105,8.0,17.0,62,0.00,,,0.00,,2013-05-04 16:22:00,
2013-05-04 12:33:00,55.0,41.0,30.23,East,91,10.0,17.0,58,0.00,,,0.00,,2013-05-04 16:33:00,
2013-05-04 12:42:00,55.0,41.0,30.23,East,91,10.0,17.0,58,0.00,,,0.00,,2013-05-04 16:42:00,
2013-05-04 12:52:00,56.0,41.0,30.22,ESE,106,8.0,17.0,58,0.00,,,0.00,,2013-05-04 16:52:00,
2013-05-04 13:02:00,57.0,41.0,30.22,East,101,9.0,19.0,56,0.00,,,0.00,,2013-05-04 17:02:00,
2013-05-04 13:12:00,57.0,41.0,30.22,East,101,9.0,19.0,56,0.00,,,0.00,,2013-05-04 17:12:00,
2013-05-04 13:22:00,57.0,41.0,30.22,ESE,104,6.0,16.0,54,0.00,,,0.00,,2013-05-04 17:22:00,
2013-05-04 13:32:00,58.0,40.0,30.21,ESE,104,8.0,15.0,52,0.00,,,0.00,,2013-05-04 17:32:00,
2013-05-04 13:42:00,58.0,40.0,30.21,ESE,104,8.0,15.0,52,0.00,,,0.00,,2013-05-04 17:42:00,
2013-05-04 13:52:00,58.0,40.0,30.22,ESE,109,8.0,20.0,52,0.00,,,0.00,,2013-05-04 17:52:00,
2013-05-04 14:01:00,59.0,41.0,30.21,ESE,113,7.0,13.0,51,0.00,,,0.00,,2013-05-04 18:01:00,
2013-05-04 14:12:00,59.0,41.0,30.21,ESE,113,7.0,13.0,51,0.00,,,0.00,,2013-05-04 18:12:00,
2013-05-04 14:22:00,60.0,40.0,30.20,East,94,9.0,18.0,48,0.00,,,0.00,,2013-05-04 18:22:00,
2013-05-04 14:32:00,60.0,40.0,30.20,East,89,8.0,14.0,48,0.00,,,0.00,,2013-05-04 18:32:00,
2013-05-04 14:42:00,60.0,40.0,30.20,East,89,8.0,14.0,48,0.00,,,0.00,,2013-05-04 18:42:00,
2013-05-04 14:52:00,60.0,40.0,30.19,East,97,8.0,15.0,48,0.00,,,0.00,,2013-05-04 18:52:00,
2013-05-04 15:01:00,60.0,41.0,30.19,East,94,10.0,18.0,50,0.00,,,0.00,,2013-05-04 19:01:00,
2013-05-04 15:11:00,60.0,41.0,30.19,East,94,10.0,18.0,50,0.00,,,0.00,,2013-05-04 19:11:00,
2013-05-04 15:21:00,60.0,40.0,30.19,ESE,103,11.0,18.0,48,0.00,,,0.00,,2013-05-04 19:21:00,
2013-05-04 15:32:00,60.0,40.0,30.19,ESE,103,11.0,18.0,48,0.00,,,0.00,,2013-05-04 19:32:00,
2013-05-04 15:42:00,60.0,40.0,30.19,ESE,103,11.0,18.0,48,0.00,,,0.00,,2013-05-04 19:42:00,
2013-05-04 15:52:00,60.0,41.0,30.18,East,92,7.0,15.0,49,0.00,,,0.00,,2013-05-04 19:52:00,
2013-05-04 16:02:00,61.0,40.0,30.18,East,82,8.0,14.0,46,0.00,,,0.00,,2013-05-04 20:02:00,
2013-05-04 16:11:00,61.0,40.0,30.18,East,82,8.0,14.0,46,0.00,,,0.00,,2013-05-04 20:11:00,
2013-05-04 16:22:00,60.0,40.0,30.17,East,95,10.0,19.0,48,0.00,,,0.00,,2013-05-04 20:22:00,
2013-05-04 16:32:00,60.0,40.0,30.17,East,95,9.0,17.0,48,0.00,,,0.00,,2013-05-04 20:32:00,
2013-05-04 16:42:00,60.0,40.0,30.17,East,95,9.0,17.0,48,0.00,,,0.00,,2013-05-04 20:42:00,
2013-05-04 16:52:00,61.0,42.0,30.16,ESE,103,5.0,15.0,49,0.00,,,0.00,,2013-05-04 20:52:00,
2013-05-04 17:02:00,60.0,40.0,30.16,East,91,9.0,18.0,47,0.00,,,0.00,,2013-05-04 21:02:00,
2013-05-04 17:12:00,60.0,40.0,30.16,East,91,9.0,18.0,47,0.00,,,0.00,,2013-05-04 21:12:00,
2013-05-04 17:22:00,61.0,40.0,30.16,East,92,6.0,16.0,45,0.00,,,0.00,,2013-05-04 21:22:00,
2013-05-04 17:33:00,61.0,40.0,30.15,ESE,104,7.0,15.0,46,0.00,,,0.00,,2013-05-04 21:33:00,
2013-05-04 17:43:00,61.0,40.0,30.15,ESE,104,7.0,15.0,46,0.00,,,0.00,,2013-05-04 21:43:00,
2013-05-04 17:53:00,61.0,41.0,30.15,East,94,7.0,15.0,48,0.00,,,0.00,,2013-05-04 21:53:00,
2013-05-04 18:03:00,60.0,39.0,30.15,East,95,8.0,14.0,46,0.00,,,0.00,,2013-05-04 22:03:00,
2013-05-04 18:12:00,60.0,39.0,30.15,East,95,8.0,14.0,46,0.00,,,0.00,,2013-05-04 22:12:00,
2013-05-04 18:22:00,60.0,40.0,30.15,East,92,8.0,16.0,47,0.00,,,0.00,,2013-05-04 22:22:00,
2013-05-04 18:33:00,59.0,38.0,30.16,East,93,9.0,16.0,46,0.00,,,0.00,,2013-05-04 22:33:00,
2013-05-04 18:42:00,59.0,38.0,30.16,East,93,9.0,16.0,46,0.00,,,0.00,,2013-05-04 22:42:00,
2013-05-04 18:52:00,59.0,39.0,30.15,East,97,6.0,16.0,48,0.00,,,0.00,,2013-05-04 22:52:00,
2013-05-04 19:02:00,59.0,39.0,30.15,East,101,7.0,16.0,48,0.00,,,0.00,,2013-05-04 23:02:00,
2013-05-04 19:12:00,59.0,39.0,30.15,East,101,7.0,16.0,48,0.00,,,0.00,,2013-05-04 23:12:00,
2013-05-04 19:22:00,58.0,39.0,30.16,East,98,5.0,9.0,50,0.00,,,0.00,,2013-05-04 23:22:00,
2013-05-04 19:32:00,58.0,39.0,30.16,East,87,4.0,10.0,50,0.00,,,0.00,,2013-05-04 23:32:00,
2013-05-04 19:42:00,58.0,39.0,30.16,East,87,4.0,10.0,50,0.00,,,0.00,,2013-05-04 23:42:00,
2013-05-04 19:52:00,57.0,40.0,30.16,ESE,104,3.0,8.0,52,0.00,,,0.00,,2013-05-04 23:52:00,
2013-05-04 20:02:00,57.0,40.0,30.16,East,89,6.0,10.0,52,0.00,,,0.00,,2013-05-05 00:02:00,
2013-05-04 20:11:00,57.0,40.0,30.16,East,89,6.0,10.0,52,0.00,,,0.00,,2013-05-05 00:11:00,
2013-05-04 20:21:00,56.0,39.0,30.16,East,91,5.0,10.0,53,0.00,,,0.00,,2013-05-05 00:21:00,
2013-05-04 20:32:00,56.0,39.0,30.16,East,91,5.0,10.0,53,0.00,,,0.00,,2013-05-05 00:32:00,
2013-05-04 20:42:00,56.0,39.0,30.16,East,91,5.0,10.0,53,0.00,,,0.00,,2013-05-05 00:42:00,
2013-05-04 20:52:00,55.0,40.0,30.16,ESE,102,3.0,8.0,56,0.00,,,0.00,,2013-05-05 00:52:00,
2013-05-04 21:01:00,55.0,40.0,30.17,East,96,4.0,7.0,56,0.00,,,0.00,,2013-05-05 01:01:00,
2013-05-04 21:11:00,54.0,39.0,30.17,ESE,110,2.0,9.0,57,0.00,,,0.00,,2013-05-05 01:11:00,
2013-05-04 21:21:00,54.0,39.0,30.17,ESE,110,2.0,9.0,57,0.00,,,0.00,,2013-05-05 01:21:00,
2013-05-04 21:32:00,54.0,39.0,30.18,East,98,4.0,9.0,57,0.00,,,0.00,,2013-05-05 01:32:00,
2013-05-04 21:42:00,54.0,39.0,30.18,East,98,4.0,9.0,57,0.00,,,0.00,,2013-05-05 01:42:00,
2013-05-04 21:52:00,54.0,40.0,30.18,ESE,107,2.0,7.0,58,0.00,,,0.00,,2013-05-05 01:52:00,
2013-05-04 22:02:00,53.0,39.0,30.19,ESE,109,3.0,9.0,59,0.00,,,0.00,,2013-05-05 02:02:00,
2013-05-04 22:11:00,53.0,39.0,30.19,ESE,109,3.0,9.0,59,0.00,,,0.00,,2013-05-05 02:11:00,
2013-05-04 22:22:00,53.0,39.0,30.19,ESE,115,3.0,13.0,59,0.00,,,0.00,,2013-05-05 02:22:00,
2013-05-04 22:32:00,53.0,39.0,30.19,ESE,115,3.0,13.0,59,0.00,,,0.00,,2013-05-05 02:32:00,
2013-05-04 22:42:00,53.0,39.0,30.19,ESE,115,3.0,13.0,59,0.00,,,0.00,,2013-05-05 02:42:00,
2013-05-04 22:52:00,52.0,39.0,30.19,East,99,4.0,8.0,60,0.00,,,0.00,,2013-05-05 02:52:00,
2013-05-04 23:01:00,52.0,39.0,30.19,ESE,106,4.0,14.0,60,0.00,,,0.00,,2013-05-05 03:01:00,
2013-05-04 23:11:00,52.0,39.0,30.19,ESE,106,4.0,14.0,60,0.00,,,0.00,,2013-05-05 03:11:00,
2013-05-04 23:22:00,52.0,39.0,30.19,ESE,106,4.0,14.0,60,0.00,,,0.00,,2013-05-05 03:22:00,
2013-05-04 23:33:00,52.0,39.0,30.18,East,86,2.0,7.0,62,0.00,,,0.00,,2013-05-05 03:33:00,
2013-05-04 23:42:00,52.0,39.0,30.18,East,86,2.0,7.0,62,0.00,,,0.00,,2013-05-05 03:42:00,
2013-05-04 23:53:00,52.0,39.0,30.18,East,86,2.0,7.0,62,0.00,,,0.00,,2013-05-05 03:53:00,